Wind_Speed
8 7 7 7 7 7 6 7 7 7 8 9 9 9 8 8 8 8 9 9 10 10 10 10 10 10 11 11 11 11 11 11 11 12 12 12 12 13 13 13 13 13 13
8 8 8 7 7 7 7 6 7 7 7 9 9 10 9 8 9 10 10 10 11 11 11 11 11 11 11 11 11 12 12 12 11 12 13 13 14 14 14 15 14 14 14
9 9 8 8 8 8 8 7 8 8 8 9 9 10 11 10 10 10 10 10 11 11 11 11 11 11 11 12 11 12 13 13 12 12 13 13 15 15 15 15 15 15 15
10 10 10 9 9 9 9 8 8 8 9 9 10 10 11 11 10 11 10 10 11 12 12 13 12 12 12 13 13 13 13 14 13 13 13 14 14 15 15 16 16 16 16
11 11 11 11 11 10 10 9 9 9 10 10 10 10 11 11 11 11 11 11 12 12 12 13 12 13 14 14 14 14 14 15 15 15 15 15 15 15 16 16 16 15 16
12 12 12 12 12 12 11 10 11 11 11 11 10 11 11 12 11 12 13 13 12 12 12 12 12 12 14 14 14 14 15 15 16 16 17 17 16 16 16 16 16 16 16
13 14 14 13 13 13 12 12 12 12 12 11 11 11 12 12 13 13 13 14 14 13 13 13 14 13 14 15 15 15 15 15 16 17 17 17 17 17 17 17 17 17 17
14 15 15 15 14 14 14 13 13 13 13 13 13 13 13 13 14 13 12 13 13 14 14 14 14 15 15 15 16 16 15 15 16 16 16 17 17 18 18 18 18 18 18
15 15 15 15 15 14 14 14 14 14 14 14 14 14 14 14 15 15 14 14 14 14 14 15 15 15 15 16 16 15 16 15 15 15 16 17 18 18 19 19 20 20 20
15 16 17 16 16 16 15 15 15 15 15 15 15 15 15 15 16 16 16 16 15 15 14 15 16 16 16 16 16 16 16 16 16 16 17 18 18 19 19 20 20 21 21
16 17 17 18 18 17 17 17 17 17 16 16 16 16 16 16 17 18 17 17 16 15 15 16 17 17 18 18 18 17 17 17 17 17 18 18 19 19 19 20 20 20 21
17 17 18 18 19 18 18 18 18 18 18 18 17 17 17 16 16 17 18 18 17 17 17 17 17 17 18 19 18 18 18 18 18 18 18 19 19 19 19 20 20 20 21
17 17 17 17 18 18 18 19 19 19 19 19 18 18 17 17 17 17 17 17 17 17 18 18 17 17 17 18 19 19 19 19 19 20 20 20 20 20 20 20 20 20 21
18 17 18 18 18 19 19 20 20 20 20 20 19 19 18 18 18 18 17 17 17 17 17 18 18 17 17 17 17 17 18 19 20 21 21 21 21 21 20 20 21 21 21
19 19 19 20 20 19 20 21 21 20 20 20 20 20 20 20 20 19 18 17 17 17 17 17 17 17 17 18 19 18 18 18 19 19 19 20 20 21 20 20 21 22 23
19 20 20 20 20 20 20 20 19 19 20 19 20 21 21 20 19 18 18 18 18 18 18 18 18 18 18 18 18 18 18 18 19 20 20 21 22 22 22 22 22 22 23
20 20 20 20 20 20 20 19 19 19 19 20 20 20 20 19 19 19 19 18 18 18 18 19 19 19 19 18 18 18 18 18 19 20 21 21 21 22 22 23 24 24 24
20 20 20 20 20 20 20 19 19 19 18 18 18 19 18 18 18 18 18 18 17 17 18 18 19 19 19 19 19 19 19 20 20 21 21 21 21 21 22 23 23 24 24
21 21 20 20 20 20 20 20 19 19 18 18 18 19 18 18 18 19 19 18 18 18 18 19 19 19 20 20 20 20 20 21 21 21 21 21 22 22 22 23 23 24 24
21 21 21 20 20 20 20 20 19 19 19 20 20 20 20 20 19 20 20 20 19 19 19 19 20 20 19 20 20 19 20 20 21 21 21 22 22 22 23 23 23 23 24
21 21 21 21 21 21 20 20 20 20 20 20 21 21 22 22 21 21 21 21 21 20 20 20 20 20 20 20 21 21 20 21 21 22 22 22 22 22 23 23 24 24 24
20 21 21 21 21 22 22 21 21 21 21 20 21 22 23 24 23 23 22 22 22 22 21 21 21 21 21 22 22 22 22 22 21 22 23 23 23 23 24 24 24 24 24
19 20 20 21 21 22 22 22 22 22 22 22 22 22 23 23 24 24 24 24 24 23 23 23 22 22 23 23 23 23 23 23 22 22 23 23 23 24 24 24 24 24 24
18 19 20 21 21 21 22 22 22 23 23 23 23 23 24 24 24 25 25 25 24 24 25 25 24 24 24 24 25 25 25 24 23 23 23 22 22 22 23 23 24 24 24
19 20 20 20 20 21 21 22 22 23 23 24 24 25 24 24 25 26 25 25 25 25 25 26 26 26 25 25 26 26 25 25 25 24 25 24 24 23 23 23 24 24 24
20 20 20 20 21 21 21 21 22 22 23 23 24 24 24 25 25 25 26 26 26 26 26 26 27 27 27 27 27 27 27 27 26 25 25 25 25 24 24 23 23 24 23
Wind_Direction
303 302 299 297 292 291 289 286 277 271 266 258 251 251 254 259 256 254 248 240 237 239 240 244 243 243 243 237 239 239 240 242 244 245 247 249 248 246 245 244 244 246 246
290 294 292 294 295 290 283 281 276 268 265 257 249 251 254 258 259 255 254 249 243 243 246 248 246 246 243 240 237 236 242 244 246 249 251 251 250 247 247 246 246 248 247
286 288 290 291 290 290 284 279 277 270 263 256 253 253 254 257 258 259 260 255 248 247 252 250 249 245 249 245 243 241 244 248 251 253 254 253 252 251 253 249 246 247 247
287 285 284 284 283 283 283 275 272 270 266 261 257 255 255 254 252 256 259 259 255 253 252 249 249 245 247 247 249 249 248 249 251 255 257 255 254 255 255 254 250 247 247
282 287 284 280 277 279 278 272 267 266 265 265 261 258 258 253 256 258 257 256 254 254 251 249 246 245 247 248 253 253 251 250 250 252 253 254 254 255 254 257 252 250 250
281 285 285 280 276 273 272 270 267 264 266 267 265 263 258 256 260 262 259 255 254 252 251 252 250 249 249 251 254 254 255 254 252 251 253 255 256 254 254 257 256 254 255
281 282 282 280 276 270 268 269 268 265 265 267 267 263 260 259 258 260 259 256 254 254 253 253 252 253 252 253 254 255 257 256 254 254 253 253 255 255 255 256 257 258 261
280 282 281 280 278 272 269 269 269 266 263 265 265 262 259 260 260 260 261 260 257 254 254 253 254 256 255 251 253 256 258 257 257 256 255 256 257 257 258 259 260 260 261
280 280 280 279 279 275 272 270 268 267 265 265 263 259 260 261 260 260 260 259 256 257 255 256 260 258 256 252 252 255 258 256 257 259 259 258 258 258 259 261 263 262 263
280 278 277 276 276 274 272 271 270 267 265 265 263 259 260 261 262 263 259 255 254 256 255 258 261 259 257 255 254 258 259 258 260 261 262 262 261 261 262 263 265 265 264
278 279 277 276 276 274 270 270 269 267 265 264 263 261 263 263 262 263 260 256 257 258 259 262 262 263 258 258 258 258 259 261 263 263 263 264 264 262 264 265 267 266 266
277 278 278 276 275 274 270 268 267 267 266 265 263 263 263 264 264 263 259 257 258 259 261 263 262 263 260 260 259 260 261 262 263 266 265 264 264 264 266 267 266 267 268
275 274 276 277 275 273 270 268 268 267 266 265 262 263 263 263 263 263 261 260 260 261 263 263 263 261 260 259 259 261 263 263 265 268 266 265 266 267 268 267 266 267 268
274 272 273 275 277 275 272 270 267 266 265 262 260 260 261 262 262 263 262 259 261 261 263 264 265 263 263 261 263 266 268 269 270 269 267 265 266 266 267 268 266 266 268
272 272 273 275 276 276 274 272 268 264 263 262 259 258 260 260 260 260 262 260 259 259 261 261 263 262 263 263 265 268 271 273 275 272 270 268 268 267 267 267 266 266 266
273 273 273 275 277 276 274 271 270 266 263 261 260 259 258 258 256 258 259 259 259 260 261 261 261 260 262 264 264 265 267 271 273 274 271 269 267 267 266 267 266 268 267
277 278 276 275 275 274 273 271 271 269 268 263 261 260 258 255 255 256 256 257 258 259 258 261 262 261 263 264 264 265 266 269 273 272 271 269 268 267 267 267 267 268 267
277 276 276 275 276 275 272 271 269 267 267 263 257 256 255 255 255 254 257 259 259 260 260 262 265 265 264 264 264 267 267 268 271 272 272 270 269 269 268 268 269 268 268
276 275 275 275 276 275 271 270 270 270 269 265 258 254 255 256 257 257 258 260 262 263 263 264 265 266 266 265 266 267 267 269 270 270 270 270 269 269 269 270 270 269 268
276 274 273 274 274 274 271 269 271 271 270 267 258 255 256 257 259 260 260 261 264 266 265 266 265 266 267 265 267 266 267 269 270 270 270 271 270 270 269 270 271 271 270
274 272 273 272 272 272 272 272 271 270 269 267 262 258 258 258 259 259 261 262 263 265 266 267 266 266 267 267 268 268 270 269 270 270 270 270 269 269 269 270 270 272 272
275 273 272 272 271 272 273 274 272 269 267 266 264 263 261 260 260 259 261 262 262 264 264 265 266 267 266 267 269 269 270 271 271 271 271 270 269 268 269 270 271 272 273
277 274 274 273 272 273 273 272 271 270 270 268 268 267 266 264 260 260 262 262 263 265 265 265 266 266 266 266 268 269 270 271 271 273 273 272 270 269 270 271 271 273 274
275 275 275 274 273 273 272 272 272 273 272 270 268 268 268 265 261 262 263 264 264 264 265 264 266 267 265 265 266 268 268 269 270 273 274 272 270 270 269 270 271 272 273
276 276 276 275 276 274 273 274 275 275 272 270 268 268 267 264 263 262 263 263 263 264 265 265 264 266 268 266 264 264 266 268 269 270 272 270 267 268 268 269 271 272 273
278 277 278 278 277 277 275 276 277 276 274 272 269 267 265 264 263 263 263 262 262 263 264 264 264 266 267 267 267 266 265 266 266 267 268 268 268 268 268 269 270 272 273
Height
5870 5869 5869 5868 5867 5867 5866 5866 5866 5866 5866 5866 5867 5868 5868 5868 5869 5869 5870 5870 5871 5871 5872 5873 5873 5874 5874 5875 5876 5877 5878 5879 5879 5880 5880 5881 5881 5882 5882 5883 5883 5883 5884
5868 5867 5867 5866 5865 5865 5864 5864 5864 5864 5864 5864 5865 5865 5866 5866 5866 5867 5867 5868 5869 5869 5870 5870 5871 5872 5872 5873 5874 5875 5875 5876 5877 5877 5878 5878 5878 5879 5879 5880 5880 5880 5881
5865 5865 5864 5864 5863 5863 5862 5861 5861 5861 5861 5862 5862 5862 5863 5863 5864 5864 5865 5865 5866 5867 5867 5868 5869 5869 5870 5870 5871 5872 5872 5873 5874 5874 5875 5875 5875 5876 5876 5877 5877 5877 5878
5863 5862 5862 5861 5861 5860 5859 5859 5859 5859 5859 5859 5859 5859 5860 5860 5861 5862 5862 5863 5863 5864 5864 5865 5866 5866 5867 5868 5868 5869 5870 5870 5870 5871 5871 5871 5872 5872 5873 5873 5874 5874 5875
5860 5859 5859 5858 5858 5857 5857 5856 5856 5857 5856 5856 5856 5856 5856 5857 5858 5858 5859 5859 5860 5861 5861 5862 5863 5863 5864 5864 5865 5866 5866 5866 5867 5867 5868 5868 5868 5869 5869 5870 5870 5871 5871
5857 5856 5855 5855 5854 5854 5854 5854 5854 5854 5853 5853 5853 5853 5853 5854 5854 5854 5855 5855 5856 5857 5858 5858 5859 5860 5860 5861 5861 5862 5862 5863 5863 5863 5864 5864 5864 5865 5865 5866 5866 5867 5867
5853 5852 5852 5851 5851 5851 5850 5850 5850 5850 5850 5850 5850 5850 5850 5850 5851 5851 5851 5852 5853 5853 5854 5855 5855 5856 5857 5857 5858 5858 5858 5858 5858 5859 5859 5860 5860 5861 5861 5862 5862 5863 5863
5849 5848 5848 5847 5847 5847 5847 5846 5846 5846 5846 5846 5846 5846 5846 5847 5847 5848 5848 5848 5849 5850 5850 5851 5851 5852 5853 5853 5854 5854 5854 5854 5854 5855 5855 5855 5856 5856 5857 5857 5858 5858 5858
5845 5844 5844 5843 5843 5842 5842 5842 5842 5842 5842 5842 5842 5843 5843 5843 5843 5844 5844 5845 5845 5846 5846 5847 5847 5848 5848 5849 5849 5849 5850 5850 5850 5850 5850 5851 5851 5851 5852 5852 5853 5853 5853
5841 5840 5839 5839 5839 5838 5838 5838 5838 5837 5837 5837 5838 5838 5839 5839 5839 5840 5840 5840 5841 5841 5842 5842 5843 5843 5844 5844 5844 5845 5845 5845 5845 5846 5846 5846 5846 5846 5847 5847 5847 5847 5848
5836 5835 5835 5835 5834 5834 5833 5833 5833 5833 5832 5833 5833 5833 5834 5834 5835 5835 5836 5836 5837 5837 5837 5838 5838 5838 5839 5839 5840 5840 5840 5840 5841 5841 5841 5841 5841 5841 5841 5841 5842 5842 5842
5831 5831 5830 5830 5829 5829 5828 5828 5828 5827 5827 5827 5828 5828 5829 5829 5830 5830 5831 5832 5832 5833 5833 5833 5833 5834 5834 5834 5834 5835 5835 5835 5836 5836 5836 5836 5836 5836 5835 5835 5836 5836 5836
5826 5826 5825 5825 5824 5824 5823 5823 5822 5822 5822 5822 5822 5823 5823 5824 5824 5825 5826 5827 5827 5828 5828 5828 5828 5829 5829 5830 5830 5830 5830 5830 5830 5830 5830 5830 5830 5830 5830 5830 5830 5830 5830
5821 5821 5820 5820 5819 5818 5817 5817 5817 5816 5816 5816 5816 5817 5818 5818 5819 5820 5821 5821 5822 5823 5823 5823 5823 5823 5824 5824 5825 5824 5824 5824 5825 5824 5824 5824 5824 5824 5824 5824 5824 5824 5824
5816 5815 5815 5814 5813 5813 5812 5811 5811 5810 5810 5810 5810 5811 5812 5813 5813 5814 5815 5816 5817 5818 5818 5818 5818 5818 5819 5819 5819 5819 5819 5819 5819 5818 5818 5818 5818 5818 5817 5817 5817 5817 5817
5810 5809 5809 5808 5808 5807 5806 5805 5805 5804 5804 5804 5805 5805 5806 5806 5807 5808 5809 5810 5811 5812 5812 5813 5813 5813 5813 5813 5813 5813 5813 5813 5813 5812 5812 5811 5811 5811 5811 5811 5810 5810 5810
5804 5803 5803 5803 5802 5801 5800 5800 5799 5799 5798 5799 5799 5799 5800 5801 5802 5803 5803 5804 5805 5806 5807 5807 5807 5807 5807 5807 5808 5808 5808 5807 5807 5806 5806 5805 5805 5805 5804 5804 5804 5804 5803
5798 5798 5797 5797 5796 5796 5795 5794 5794 5793 5793 5793 5793 5794 5794 5795 5796 5797 5798 5798 5799 5800 5801 5801 5801 5801 5802 5802 5802 5802 5802 5801 5801 5800 5800 5799 5799 5798 5798 5798 5797 5797 5797
5792 5792 5791 5791 5791 5790 5790 5789 5788 5787 5787 5787 5787 5788 5789 5790 5791 5791 5792 5793 5793 5794 5795 5795 5795 5795 5795 5796 5796 5796 5795 5795 5794 5794 5793 5793 5792 5792 5792 5791 5790 5790 5790
5786 5785 5785 5785 5785 5784 5784 5783 5783 5782 5782 5781 5782 5782 5783 5784 5785 5786 5786 5787 5787 5788 5788 5789 5789 5789 5789 5789 5789 5790 5789 5789 5788 5788 5787 5787 5786 5786 5785 5784 5784 5783 5783
5779 5779 5779 5779 5778 5778 5777 5777 5776 5776 5776 5776 5776 5776 5777 5778 5779 5779 5780 5781 5781 5782 5782 5782 5782 5783 5783 5783 5783 5783 5783 5782 5782 5781 5781 5780 5780 5779 5778 5777 5777 5776 5776
5773 5773 5772 5772 5772 5771 5771 5771 5770 5770 5769 5769 5769 5769 5770 5771 5772 5773 5773 5774 5775 5775 5775 5775 5776 5776 5776 5776 5776 5776 5776 5776 5775 5775 5774 5773 5772 5772 5771 5771 5770 5770 5769
5767 5767 5766 5765 5765 5765 5764 5764 5764 5763 5763 5763 5763 5763 5763 5764 5764 5765 5766 5767 5767 5768 5768 5768 5769 5769 5769 5769 5768 5768 5768 5768 5768 5767 5766 5766 5765 5765 5764 5764 5763 5763 5762
5761 5760 5760 5759 5758 5758 5758 5757 5756 5756 5756 5755 5755 5756 5756 5756 5757 5758 5758 5759 5760 5760 5760 5761 5761 5761 5761 5761 5761 5761 5760 5760 5760 5760 5759 5759 5759 5758 5757 5757 5756 5756 5755
5755 5754 5753 5753 5752 5751 5751 5750 5749 5749 5748 5748 5748 5748 5748 5749 5749 5749 5750 5751 5752 5752 5752 5752 5753 5753 5753 5753 5752 5752 5752 5753 5753 5752 5752 5752 5752 5751 5751 5751 5750 5749 5748
5749 5748 5747 5746 5746 5745 5744 5743 5742 5742 5741 5741 5741 5740 5741 5741 5741 5741 5742 5743 5743 5743 5743 5744 5744 5744 5744 5744 5744 5744 5745 5745 5745 5745 5744 5744 5744 5744 5745 5744 5743 5742 5741